Regional Weather Roundup
Issued by NWS

Home | Current Version | Previous Version | Graphics & Text | Print | Product List | Glossary On
Versions: 1 2 3 4 5 6 7 8 9 10 11 12 13 14 15 16 17 18 19 20 21 22 23 24 25 26 27 28 29 30 31 32 33 34 35 36 37 38 39 40 41 42 43 44 45 46 47 48 49 50
000
ASUS43 KTOP 291008
RWRKS

WEATHER ROUNDUP FOR KANSAS
NATIONAL WEATHER SERVICE GOODLAND KS
500 AM CDT THU SEP 29 2016

NOTE:  "FAIR" INDICATES FEW OR NO CLOUDS BELOW 12,000 FEET WITH NO
SIGNIFICANT WEATHER AND/OR OBSTRUCTIONS TO VISIBILITY.

KSZ001>006-013>018-027>032-041>047-291100-
NORTHWEST KANSAS

CITY           SKY/WX    TMP DP  RH WIND       PRES   REMARKS
GOODLAND       CLEAR     50  40  68 S9        30.38S
HAYS           CLOUDY    45  34  65 NW5       30.38R
HILL CITY      CLOUDY    41  39  93 CALM      30.40R
RUSSELL        CLOUDY    45  42  89 N6        30.36R
$$

KSZ061>065-074>080-084>089-291100-
SOUTHWEST KANSAS

CITY           SKY/WX    TMP DP  RH WIND       PRES   REMARKS
DODGE CITY     CLOUDY    43  39  86 CALM      30.38R
ELKHART          N/A     48  35  60 SE7         N/A
GARDEN CITY    CLEAR     49  40  71 CALM      30.38R
GREAT BEND     CLOUDY    45  36  70 W6        30.37R
LIBERAL        PTCLDY    54  36  50 E3        30.38R
PRATT          CLOUDY    46  41  81 NE8       30.36R
$$

KSZ066>073-081>083-090>101-291100-
SOUTHEAST KANSAS

CITY           SKY/WX    TMP DP  RH WIND       PRES   REMARKS
CHANUTE        CLEAR     50  47  89 NW6       30.29R
COFFEYVILLE    CLEAR     49  46  90 N7        30.29R
HUTCHINSON     CLEAR     48  45  89 N7        30.35R
MEDICINE LODGE   N/A     48  45  89 CALM      30.34R
NEWTON         CLEAR     47  45  93 NW3       30.35R
PARSONS        CLEAR     47  45  93 N3        30.30R
WICHITA INTL   PTCLDY    52  47  83 N6        30.33R
WICHITA JABRA  CLEAR     48  46  93 NW6       30.33R
WINFIELD       CLEAR     47  45  93 NW6       30.32R
$$

KSZ007>012-019>026-033>040-048>060-102>105-291100-
NORTHEAST KANSAS

CITY           SKY/WX    TMP DP  RH WIND       PRES   REMARKS
CONCORDIA      CLEAR     47  45  93 NE3       30.37R
EMPORIA        CLEAR     49  46  90 N5        30.32R
LAWRENCE       CLEAR     47  47 100 W5        30.32R
MANHATTAN      CLEAR     46  44  93 CALM      30.35R
MARYSVILLE     CLEAR     43  43 100 N5        30.36R
OLATHE IND     CLEAR     48  47  96 N7        30.31R
OLATHE EXE     CLEAR     51  46  83 N6        30.30R
SALINA         CLEAR     49  44  83 NW5       30.36R
TOPEKA BILLARD CLEAR     50  46  86 SW3       30.33R
TOPEKA FORBES  CLEAR     50  46  86 N7        30.32R
$$



USA.gov is the U.S. government's official web portal to all federal, state and local government web resources and services.